Weather in Nablus

Israel     32°13′16″N   35°15′37″E
temp.,
°C
wind,
m/s
gust,
m/s
humid.,
%
clouds,
%
prec.,
mm/h
press.,
hPa
HPBL,
m
9 may, sun
sun900:00+24se22282 0.0 101211
03:00+23sw11284 0.0 101111
06:00+24sse33215 0.0 101012
09:00+31wsw121630 0.0 1011385
12:00+35w771384 0.0 10111394
15:00+35wsw8101128 0.0 10091216
18:00+28w71025100 0.0 1010374
21:00+24sw2240100 0.0 101018
10 may, mon
mon1000:00+23w3337100 0.0 101018
03:00+20wsw3363100 0.0 101143
06:00+18ssw2277100 0.0 101126
09:00+25wsw23397 0.0 1011507
12:00+29w542874 0.0 1010973
15:00+28w7636100 0.0 1009755
18:00+25wnw33410 0.0 1009389
21:00+21w115756 0.0 101020
11 may, tue
tue1100:00+20w225225 0.0 100916
03:00+19wsw22530 0.0 100913
06:00+18wsw22580 0.0 101013
09:00+24nw33280 0.0 1010404
12:00+28wnw33210 0.0 10101102
15:00+29nw65200 0.0 10091103
18:00+24nw78290 0.0 1009444
21:00+19w33430 0.0 101057
12 may, wed
wed1200:00+18w22440 0.0 101017
03:00+17w22510 0.0 101014
06:00+16w22560 0.0 101013
09:00+22nw23380 0.0 1011410
12:00+27wnw33270 0.0 10101036
15:00+27wnw54300 0.0 1010933
18:00+24nw67370 0.0 1010518
21:00+19w22580 0.0 101133
13 may, thu
thu1300:00+17wsw22680 0.0 101119
03:00+16w22730 0.0 101115
06:00+15w22730 0.0 101213
09:00+22wnw33430 0.0 1012402
12:00+27wnw33260 0.0 1012986
15:00+28wnw54290 0.0 1011955
18:00+24nw56340 0.0 1011470
21:00+18w22580 0.0 101332